SCP
0 0 0 0 0 0 0 0 0 0 0 0 0 0 0 0 0 0 0 0 0 0 0 0 0 0 0 0 0 0 0 0 0 0 0 0 0 0 0 0 0 0 0 0 0 0 0 0 0
0 0 0 0 0 0 0 0 0 0 0 0 0 0 0 0 0 0 0 0 0 0 0 0 0 0 0 0 0 0 0 0 0 0 0 0 0 0 0 0 0 0 0 0 0 0 0 0 0
0 0 0 0 0 0 0 0 0 0 0 0 0 0 0 0 0 0 0 0 0 0 0 0 0 0 0 0 0 0 0 0 0 0 0 0 0 0 0 0 0 0 0 0 0 0 0 0 0
0 0 0 0 0 0 0 0 0 0 0 0 0 0 0 0 0 0 0 0 0 0 0 0 0 0 0 0 0 0 0 0 0 0 0 0 0 0 0 0 0 0 0 0 0 0 0 0 0
0 0 0 0 0 0 0 0 0 0 0 0 0 0 0 0 0 0 0 0 0 0 0 0 0 0 0 0 0 0 0 0 0 0 0 0 0 0 0 0 0 0 0 0 0 0 0 0 0
0 0 0 0 0 0 0 0 0 0 0 0 0 0 0 0 0 0 0 0 0 0 0 0 0 0 0 0 0 0 0 0 0 0 0 0 0 0 0 0 0 0 0 0 0 0 0 0 0
0 0 0 0 0 0 0 0 0 0 0 0 0 0 0 0 0 0 0 0 0 0 0 0 0 0 0 0 0 0 0 0 0 0 0 0 0 0 0 0 0 0 0 0 0 0 0 0 0
0 0 0 0 0 0 0 0 0 0 0 0 0 0 0 0 0 0 0 0 0 0 0 0 0 0 0 0 0 0 0 0 0 0 0 0 0 0 0 0 0 0 0 0 0 0 0 0 0
0 0 0 0 0 0 0 0 0 0 0 0 0 0 0 0 0 0 0 0 0 0 0 0 0 0 0 0 0 0 0 0 0 0 0 0 0 -0 -0 0 0 0 0 0 0 0 0 0 0
0 0 0 0 0 0 0 0 0 0 0 0 0 0 0 0 0 0 0 0 0 0 0 0 0 0 0 0 0 0 0 0 0 0 0 0 -0 -0 -0 0 0 0 0 0 0 0 0 0 0
0 0 0 0 0 0 0 0 0 0 0 0 0 0 0 0 0 0 0 0 0 0 0 0 0 0 0 0 0 0 0 0 0 0 -0 -0 -0 -0 -0 -0 0 0 0 0 0 0 0 0 0
0 0 0 0 0 0 0 0 0 0 0 0 0 0 0 0 0 0 0 0 0 0 0 0 0 0 0 0 0 0 0 0 0 0 -0 -0 -0 -0 -0 -0 -0 0 0 0 -0 -0 0 0 0
0 0 0 0 0 0 0 0 0 0 0 0 0 0 0 0 0 0 0 0 0 0 0 0 0 0 0 0 0 0 0 0 0 0 0 -0 -0 -0 0 0 0 -0 -0 -0 -0 -0 0 0 0
0 0 0 0 0 0 0 0 0 0 0 0 0 0 0 0 0 0 0 0 0 0 0 0 0 0 0 0 0 0 0 0 0 0 0 0 0 0 0 0 0 0 0 0 0 0 0 0 0
0 0 0 0 0 0 0 0 0 0 0 0 0 0 0 0 0 0 0 0 0 0 0 0 0 0 0 0 0 0 0 0 0 0 0 0 0 0 0 0 0 0 0 0 0 0 0 0 0
0 0 0 0 0 0 0 0 0 0 0 0 0 0 0 0 0 0 0 0 0 0 0 0 0 0 0 0 0 0 0 0 0 0 0 0 0 0 0 0 0 0 0 0 0 0 0 0 0
0 0 0 0 0 0 0 0 0 0 0 0 0 0 0 0 0 0 0 0 0 0 0 0 0 0 0 0 0 0 0 0 0 0 0 0 0 0 0 0 0 0 0 0 0 0 0 0 0
0 0 0 0 0 0 0 0 0 0 0 0 0 0 0 0 0 0 0 0 0 0 0 0 0 0 0 0 0 0 0 0 0 0 0 0 0 0 0 0 0 0 0 0 0 0 0 0 0
0 0 0 0 0 0 0 0 0 0 0 0 0 0 0 0 0 0 0 0 0 0 0 0 0 0 0 0 0 0 0 0 0 0 0 0 0 0 0 0 0 0 0 0 0 0 0 0 0
0 0 0 0 0 0 0 0 0 0 0 0 0 0 0 0 0 0 0 0 0 0 0 0 0 0 0 0 0 0 0 0 0 0 0 0 0 0 0 0 0 0 0 0 0 0 0 0 0
0 0 0 0 0 0 0 0 0 0 0 0 0 0 0 0 0 0 0 0 0 0 0 0 0 0 0 0 0 0 0 0 0 0 0 0 0 0 0 0 0 0 0 0 0 0 0 0 0
0 0 0 0 0 0 0 0 0 0 0 0 0 0 0 0 0 0 0 0 0 0 0 0 0 0 0 0 0 0 0 0 0 0 0 0 0 0 0 0 0 0 0 0 -0 0 0 0 0
0 0 0 0 0 0 0 0 0 0 0 0 0 0 0 0 0 0 0 0 0 0 0 0 0 0 0 0 0 0 0 0 0 0 0 0 0 0 0 0 0 0 0 0 -0 -0 -0 -0 0
0 0 0 0 0 0 0 0 0 0 0 0 0 0 0 0 0 0 0 0 0 0 0 0 0 0 0 0 0 0 0 0 0 0 0 0 0 0 0 0 0 0 0 0 0 0 -0 -0 -0
0 0 0 0 0 0 0 0 0 0 0 0 0 0 0 0 0 0 0 0 0 0 0 0 0 0 0 0 0 0 0 0 0 0 0 0 0 0 -0 -0 0 0 0 0 0 0 0 0 0
0 0 0 0 0 0 0 0 0 0 0 0 0 0 0 0 0 0 0 0 0 0 0 0 0 0 0 0 0 0 0 0 0 0 0 0 0 0 -0 -0 0 0 0 0 0 0 0 0 0
0 0 0 0 0 0 0 0 0 0 0 0 0 0 0 0 0 0 0 0 0 0 0 0 0 0 0 0 0 0 0 0 0 0 0 0 0 0 -0 0 0 0 0 0 0 0 0 0 0
0 0 0 0 0 0 0 0 0 0 0 0 0 0 0 0 0 0 0 0 0 0 0 0 0 0 0 0 0 0 0 0 0 0 0 0 0 0 0 0 0 0 0 0 0 0 0 0 0
0 0 0 0 0 0 0 0 0 0 0 0 0 0 0 0 0 0 0 0 0 0 0 0 0 0 0 0 0 0 0 0 0 0 0 0 0 0 0 0 0 0 0 0 0 0 0 0 0
0 0 0 0 0 0 0 0 0 0 0 0 0 0 0 0 0 0 0 0 0 0 0 0 0 0 0 0 0 0 0 0 0 0 0 0 0 0 0 -0 0 0 0 0 0 0 0 0 0
Wind_Speed
2 1 2 3 5 5 3 1 1 2 4 4 8 9 8 7 5 6 2 6 7 5 4 8 12 12 13 13 13 13 13 13 12 12 12 12 12 12 12 11 11 11 10 10 10 10 9 9 9
1 1 3 4 5 4 2 1 4 4 6 6 8 8 8 7 5 6 4 6 7 6 5 7 12 13 13 13 13 12 12 12 12 12 12 12 12 11 11 11 11 10 10 10 10 9 9 9 8
1 1 3 4 3 3 4 2 5 6 6 4 6 6 5 4 4 4 6 8 7 6 5 7 12 13 13 13 12 12 11 11 11 11 11 11 11 11 11 10 10 10 10 10 9 9 9 8 8
3 4 5 5 5 2 5 4 5 6 6 6 6 6 4 3 2 6 9 9 8 6 5 7 12 12 12 12 12 11 11 11 10 10 11 10 10 10 10 9 9 9 9 9 9 8 8 8 8
4 5 6 4 3 2 3 4 5 6 4 5 7 7 4 3 7 9 9 9 9 6 5 7 12 12 12 11 11 10 10 10 10 10 9 9 9 9 9 8 8 8 8 8 8 7 8 8 8
4 5 5 3 3 3 2 4 8 9 8 7 7 6 3 3 6 7 8 8 8 7 6 6 11 11 11 10 9 9 9 8 8 8 8 8 8 8 7 8 8 7 7 7 7 7 7 8 8
5 4 4 4 5 3 3 3 5 7 6 4 5 5 2 2 5 6 7 7 6 6 5 3 4 6 9 9 8 7 7 7 6 6 6 6 6 6 6 6 6 6 6 6 6 6 6 7 7
5 5 3 3 5 3 3 4 5 6 5 4 4 6 5 4 5 6 6 6 5 5 4 4 3 3 3 3 5 5 5 5 4 3 4 4 4 4 4 4 4 5 5 5 5 5 6 6 6
4 6 3 3 5 4 4 6 4 5 6 4 4 4 6 7 7 7 5 4 5 5 4 3 3 2 2 2 2 2 3 3 3 2 3 2 2 2 2 2 3 4 4 4 5 5 5 5 6
5 4 2 2 5 6 6 6 5 5 6 5 6 6 7 7 7 7 6 5 5 5 5 4 4 3 2 2 1 1 1 1 1 1 2 1 1 1 1 3 4 5 5 5 5 5 4 4 3
4 5 3 4 6 7 7 5 4 8 5 6 10 10 8 7 6 6 5 5 4 5 5 5 4 3 2 1 2 1 1 1 1 2 2 1 1 1 2 2 3 4 5 4 4 4 3 2 2
5 4 5 5 5 7 6 5 5 5 6 8 10 11 8 7 6 5 5 4 4 5 4 4 4 3 2 3 2 2 1 1 1 1 2 2 1 1 1 1 2 2 2 2 3 2 3 3 2
6 4 6 7 8 8 8 7 6 5 7 9 10 9 8 7 5 5 5 5 5 5 4 4 4 4 3 3 2 2 2 2 2 2 2 3 2 2 2 2 2 2 2 2 3 3 4 4 4
5 6 6 7 7 6 9 5 5 5 9 9 9 7 6 6 6 5 5 5 5 4 4 4 4 4 4 3 2 2 2 2 3 3 3 3 3 3 2 3 3 3 2 2 3 3 4 3 3
6 7 4 3 4 5 8 4 3 7 10 9 8 6 6 5 6 6 6 6 5 5 4 5 5 4 5 4 3 3 2 3 3 3 3 4 3 4 3 3 3 2 3 3 3 4 4 4 4
4 4 2 1 3 4 7 4 4 7 10 8 7 6 6 5 5 5 6 6 5 5 5 5 6 5 5 4 4 3 3 3 3 3 3 4 4 4 3 3 3 3 3 3 3 3 4 4 4
3 2 2 2 3 4 5 4 5 6 10 9 7 7 6 5 4 5 6 6 6 6 6 6 5 5 5 5 4 4 3 4 3 3 3 4 4 4 3 3 2 3 3 3 3 3 3 3 3
4 3 2 4 4 5 4 5 6 7 9 9 7 7 7 6 6 6 6 6 6 6 7 6 5 5 5 4 4 3 4 3 3 3 3 4 4 4 4 3 3 3 3 3 3 3 3 2 2
6 4 3 3 4 4 5 5 8 8 8 8 7 7 7 7 5 5 6 6 6 6 6 6 6 4 4 3 3 2 2 2 2 2 3 4 4 4 4 3 3 3 3 3 3 3 4 3 2
4 3 2 1 3 4 4 4 6 7 9 11 11 9 8 6 4 5 6 5 6 6 6 6 6 5 4 3 2 2 2 1 1 1 3 3 4 4 3 3 3 3 3 4 4 3 2 2 2
3 4 4 3 0 1 4 1 3 4 5 7 9 9 9 10 9 7 7 6 6 7 7 7 6 6 5 4 3 3 3 3 2 2 2 2 3 4 4 3 3 3 3 3 3 2 3 2 2
3 5 5 4 3 2 3 2 6 6 6 8 9 9 10 9 9 8 8 7 7 7 7 7 6 6 5 5 4 4 3 2 1 1 0 2 2 3 3 4 4 3 3 3 2 3 2 3 2
5 5 3 3 3 0 1 2 6 3 7 10 11 12 12 11 11 10 9 9 8 7 7 7 7 6 5 5 5 5 3 2 1 1 2 2 2 2 3 3 3 3 2 3 3 3 3 2 2
4 3 4 4 3 2 4 4 5 6 12 11 12 12 12 12 11 9 8 7 6 6 6 6 6 5 5 5 5 5 5 4 3 2 2 1 1 2 2 3 3 3 2 3 3 3 3 3 3
5 6 3 2 2 5 3 3 8 9 10 13 14 13 12 12 11 9 9 8 8 8 7 7 7 5 5 5 5 5 5 5 5 4 3 2 1 1 1 2 2 2 2 2 3 3 3 3 3
4 8 7 4 4 4 1 4 7 6 7 9 10 11 11 12 11 11 11 10 10 9 8 8 7 6 5 6 5 5 5 3 3 4 3 3 2 2 1 2 2 2 3 3 3 3 3 3 3
4 3 6 6 1 1 3 4 5 2 2 5 7 9 11 12 12 12 11 10 10 10 9 9 9 7 6 6 5 4 4 4 4 4 3 2 2 2 2 2 3 3 3 3 3 3 3 3 3
6 6 5 4 3 2 3 3 4 3 2 5 8 10 11 11 11 10 10 10 10 9 9 9 8 8 6 6 5 5 5 4 5 4 4 4 3 3 3 3 3 3 3 3 3 3 2 3 2
2 2 4 4 4 4 2 6 5 6 5 6 8 9 10 11 12 11 10 9 9 8 8 7 7 7 6 6 5 5 4 4 5 5 5 4 4 4 4 3 3 2 2 2 3 2 2 3 3
5 5 6 5 2 3 3 7 4 4 4 5 6 7 8 10 11 11 10 9 8 8 7 7 7 7 7 6 5 5 4 4 5 5 5 4 5 4 4 4 3 3 2 2 3 3 2 3 2
Wind_Direction
283 356 83 60 57 57 64 27 116 79 61 55 73 80 79 61 81 116 140 127 124 116 103 98 98 98 96 94 94 94 93 91 89 87 85 82 80 78 76 75 72 71 69 70 71 70 69 66 65
349 88 69 60 79 82 62 40 83 90 124 115 76 70 72 70 77 102 120 130 127 119 109 102 100 99 96 94 92 92 93 92 91 89 85 82 80 79 77 76 73 70 68 68 67 66 65 62 60
319 65 79 66 80 128 137 151 107 91 85 86 75 55 64 77 91 113 138 135 123 113 107 109 105 101 97 95 93 92 93 93 92 90 86 83 81 79 78 77 74 71 67 65 62 61 60 58 55
64 46 56 70 82 106 139 151 121 98 63 59 90 70 61 56 100 131 137 129 121 115 111 115 110 107 102 99 96 92 91 93 92 90 88 85 83 81 79 77 75 72 67 62 60 56 55 53 53
71 75 68 69 80 85 110 124 107 88 70 71 88 91 66 33 104 125 132 131 130 125 119 122 117 112 108 104 101 96 91 94 93 93 90 87 85 83 81 79 75 70 65 59 55 53 51 49 51
61 70 86 96 96 86 85 102 97 90 97 92 90 96 83 100 118 130 133 136 137 135 135 133 126 121 116 113 109 103 97 98 99 98 95 90 85 82 80 76 73 68 62 57 50 44 45 45 49
98 88 107 122 112 98 122 113 109 117 112 101 111 98 106 123 137 135 131 132 136 137 138 134 130 126 126 125 119 111 102 101 106 101 99 94 86 82 78 74 68 63 59 53 39 30 30 35 49
120 100 90 104 117 121 136 105 108 109 108 110 101 122 153 167 137 121 120 128 133 140 146 145 139 132 134 131 129 121 109 99 95 93 92 89 80 74 71 64 60 59 54 43 28 16 17 31 49
86 83 104 140 137 142 131 101 79 70 94 80 76 119 145 143 127 115 111 111 131 147 158 157 155 159 164 166 141 117 97 75 66 57 66 68 26 9 21 20 35 41 35 26 20 20 24 30 37
81 104 151 164 145 136 120 112 116 89 83 83 90 99 120 126 129 130 130 135 140 150 164 168 174 178 184 170 107 44 44 34 42 43 40 50 37 354 16 358 15 22 20 16 17 24 25 26 31
107 131 129 108 123 121 111 104 102 114 108 143 142 142 136 127 130 135 144 147 148 150 154 160 167 167 162 131 117 82 45 34 31 49 62 73 62 27 22 10 2 9 19 16 13 21 31 37 38
104 110 118 114 115 113 111 109 97 117 153 154 146 145 138 134 143 153 153 146 131 124 136 145 144 134 127 111 103 100 79 58 48 43 79 90 81 56 29 19 6 9 16 21 21 32 42 52 58
96 104 104 108 102 103 98 97 104 112 134 138 139 138 142 147 151 153 145 136 124 121 119 121 128 124 115 98 92 91 81 71 62 49 55 90 99 81 48 30 30 19 29 39 35 39 47 53 56
123 110 106 110 110 108 106 99 94 134 141 139 143 149 155 158 154 146 141 139 137 131 127 122 118 116 108 99 91 83 81 70 58 52 54 78 89 87 72 47 37 26 33 46 56 52 59 56 58
105 96 85 105 117 129 108 77 130 156 147 145 150 152 152 159 152 155 158 152 152 144 130 122 119 102 97 91 89 82 74 65 56 52 55 66 76 80 76 61 43 25 37 50 51 47 50 56 58
76 74 96 231 144 146 115 151 192 161 150 153 156 159 156 163 161 161 155 149 152 143 129 125 120 109 100 95 87 79 70 63 53 51 54 57 66 76 76 66 45 32 46 49 55 51 51 47 49
52 124 183 229 181 149 130 172 196 169 158 164 170 170 165 161 162 166 162 153 154 148 136 126 123 116 107 96 86 77 67 62 55 52 52 54 58 67 76 66 48 47 52 44 55 53 58 56 47
178 175 192 202 193 149 150 181 186 184 171 174 179 180 174 173 182 173 165 157 146 140 135 134 125 117 109 93 76 60 52 48 49 50 50 59 59 66 72 64 46 52 57 43 50 58 48 58 55
161 160 186 220 184 152 174 186 193 193 179 181 187 188 186 191 190 167 163 152 142 137 135 139 133 130 118 103 97 89 70 46 45 48 57 61 59 62 68 63 50 54 64 58 60 67 54 37 44
152 164 205 242 184 158 177 205 202 190 189 185 186 191 190 188 183 176 166 158 154 152 148 149 146 142 135 133 136 134 129 100 65 37 45 53 59 58 72 71 64 61 66 55 53 65 68 34 38
175 187 204 193 225 55 128 266 226 225 204 195 195 193 190 186 183 180 171 167 163 161 162 162 160 149 143 136 110 84 63 46 34 29 22 26 59 64 69 75 76 67 73 71 61 76 92 73 17
204 208 192 172 131 234 163 223 252 214 212 206 203 197 193 191 185 183 177 172 173 174 166 157 159 154 149 139 129 131 133 146 190 179 80 31 49 62 72 78 78 74 69 69 63 74 89 99 59
195 197 169 167 149 290 216 177 271 198 215 219 207 200 194 191 186 185 182 176 174 168 160 159 156 153 153 144 140 137 144 165 153 114 91 56 35 45 69 82 80 75 68 69 68 69 71 86 99
144 85 46 48 76 285 227 180 262 212 212 209 205 201 194 189 188 186 180 164 162 157 151 154 154 158 159 151 147 150 153 153 140 135 133 98 33 33 53 81 78 78 73 71 74 76 76 75 82
103 96 58 14 8 260 229 175 246 231 213 201 198 196 191 186 184 180 174 171 168 165 164 161 159 166 170 163 166 167 165 163 164 166 164 156 127 78 59 83 78 75 78 80 81 76 71 71 80
167 141 155 180 210 274 282 221 254 249 213 195 189 183 179 181 182 182 182 178 176 173 170 168 169 174 176 173 179 178 172 167 168 166 163 165 168 176 153 114 95 86 84 83 78 73 68 71 76
146 176 169 141 187 259 279 282 307 1 139 172 174 173 181 183 185 184 182 180 179 177 177 177 177 178 181 181 178 180 180 174 169 166 161 163 166 159 147 130 111 97 89 87 83 71 61 74 72
157 155 110 126 160 233 287 264 247 265 210 179 178 184 188 184 183 182 182 183 183 180 179 177 177 180 182 179 179 180 183 179 167 154 158 160 158 147 140 132 122 104 92 88 83 75 65 76 63
150 139 132 135 156 157 233 268 231 211 198 183 188 186 183 181 181 181 183 184 180 177 175 178 180 177 178 180 178 171 176 170 160 161 170 165 153 153 157 152 138 123 109 97 90 86 85 80 59
173 178 150 148 201 165 178 268 277 198 188 177 185 184 180 178 178 179 178 173 172 177 180 183 184 182 184 179 171 174 176 164 162 170 176 169 164 167 162 148 141 140 134 124 117 112 99 96 84